Regional Weather Roundup
Issued by NWS

Home | Current Version | Previous Version | Text Only | Print | Product List | Glossary Off
Versions: 1 2 3 4 5 6 7 8 9 10 11 12 13 14 15 16 17 18 19 20 21 22 23 24 25 26 27 28 29 30 31 32 33 34 35 36 37 38 39 40 41 42 43 44 45 46 47 48 49 50

000
ASUS43 KFSD 061010
RWRSD

WEATHER ROUNDUP FOR SOUTH DAKOTA
NATIONAL WEATHER SERVICE SIOUX FALLS SD
500 AM CDT MON JUL 06 2015

NOTE: "FAIR" INDICATES FEW OR NO CLOUDS BELOW 12,000 FEET WITH NO
SIGNIFICANT WEATHER AND/OR OBSTRUCTIONS TO VISIBILITY.


SDZ001>005-009-010-012>017-061100-
NORTHWEST AND NORTH CENTRAL SOUTH DAKOTA

CITY           SKY/WX    TMP DP  RH WIND       PRES   REMARKS
BUFFALO          N/A     58  52  80 NW10      30.10R
FAITH            N/A     60  54  80 N8        30.10R
MOBRIDGE       CLOUDY    65  63  93 N8        30.01R FOG
$$

SDZ012>016-024>037-041>051-057-063-072>074-061100-
SOUTHWEST AND SOUTH CENTRAL SOUTH DAKOTA

CITY           SKY/WX    TMP DP  RH WIND       PRES   REMARKS
RAPID CTY ARPT CLOUDY    60  56  86 NW13      30.14R FOG
PIERRE         CLOUDY    64  62  93 N13       29.98R FOG
CUSTER         LGT RAIN  52  48  86 N7        30.21S FOG
ELLSWORTH AFB  CLOUDY    60  57  89 NW14      30.13R
PHILIP         CLOUDY    63  60  90 NW12      30.06R FOG
PINE RIDGE     CLOUDY    60  56  86 N15       30.11R FOG
SPEARFISH      CLOUDY    55  52  88 NW3       30.20R
WINNER         LGT RAIN  64  61  90 N17       29.96R FOG
$$

SDZ004>011-016>023-039-040-061100-
NORTHEAST SOUTH DAKOTA

CITY           SKY/WX    TMP DP  RH WIND       PRES   REMARKS
ABERDEEN       LGT RAIN  65  60  84 NE8       29.96S
WATERTOWN      LGT RAIN  65  62  90 N15       29.90F FOG
BROOKINGS      CLOUDY    66  63  88 N10       29.87F
SISSETON         N/A     64  61  90 N10       29.92R
$$

SDZ017-020-022-023-036>040-048>070-061100-
SOUTHEAST SOUTH DAKOTA

CITY           SKY/WX    TMP DP  RH WIND       PRES   REMARKS
SIOUX FALLS    LGT RAIN  69  68  96 N17G25    29.77F
HURON          LGT RAIN  67  66  97 N9        29.88F
CHAMBERLAIN    LGT RAIN  64  64  99 N16G26    29.91R
MITCHELL       CLOUDY    68  66  93 N18G28    29.83R
YANKTON        CLOUDY    70  66  88 SE6       29.79S
$$

ABBREVIATIONS USED IN REMARKS
   TC - TEMPERATURE IN CELSIUS
  WCI - WIND CHILL INDEX
   HX - HEAT INDEX
  VSB - VISIBILITY



USA.gov is the U.S. government's official web portal to all federal, state and local government web resources and services.